Location: Unspecified
(0.0000°N, 0.0000°E)
Time: 13:14:53
(UTC+00:00)

Kosmos-2213 - Pass Details

Date: 23 November 2025
Orbit: 1409 x 1415 km, 82.6° (Epoch: 13 December)

Event Time Altitude Azimuth Distance (km) Brightness Sun altitude
Rises 03:12:20 0° 176° (S) 4,485 10.3 -35.7°
Reaches altitude 10° 03:15:12 10° 173° (S) 3,507 9.7 -35.1°
Maximum altitude 03:23:28 64° 93° (E) 1,542 7.5 -33.2°
Drops below altitude 10° 03:31:42 10° 13° (NNE) 3,499 9.3 -31.3°
Sets 03:34:33 0° 11° (N) 4,473 9.8 -30.7°
